Weather History for Marietta, GA

Change the Weather History Date:

Thursday, November 15, 2012

  Actual Average Record
Temperature  
Mean Temperature 48 °F -  
Max Temperature 54 °F 59 °F 75 °F (2005)
Min Temperature 41 °F 41 °F 28 °F (2014)
Degree Days  
Heating Degree Days 18    
Moisture  
Dew Point 39 °F    
Average Humidity 84    
Maximum Humidity 93    
Minimum Humidity 65    
Precipitation  
Precipitation 0.00 in - - ()
Sea Level Pressure  
Sea Level Pressure 30.29 in    
Wind  
Wind Speed 5 mph (East)    
Max Wind Speed 9 mph    
Max Gust Speed -    
Visibility 9 miles    
Events      
Averages and records for this station are not official NWS values.
T = Trace of Precipitation, MM = Missing Value Source: NWS Daily Summary

Daily Weather History Graph

Daily Weather History Graph

Search for Another Location

Airport:

Trip Planner

Search our weather history database for the weather conditions in past years. The results will help you decide how hot, cold, wet, or windy it might be!

Date:

Astronomy

Nov. 15, 2012 Rise Set
Actual Time 7:10 AM EST 5:34 PM EST
Civil Twilight 6:44 AM EST 6:00 PM EST
Nautical Twilight 6:14 AM EST 6:31 PM EST
Astronomical Twilight 5:44 AM EST 7:00 PM EST
Moon 9:02 AM EST (11/15) 7:27 PM EST (11/15)
Length of Visible Light 11h 16m
Length of Day
10h 23m
Waxing Crescent, 5% of the Moon is Illuminated
Nov 15
Waxing Crescent
Nov 20
First Quarter
Nov 28
Full
Dec 6
Last Quarter
Dec 13
New

Hourly Weather History & Observations

Time (EST) Temp. Windchill Dew Point Humidity Pressure Visibility Wind Dir Wind Speed Gust Speed Precip Events Conditions
12:55 AM 43.3 °F 40.7 °F 38.7 °F 84% 30.29 in 10.0 mi East 4.6 mph - N/A   Overcast
1:23 AM 42.8 °F 39.3 °F 39.2 °F 87% 30.28 in 10.0 mi Variable 5.8 mph - N/A   Overcast
1:50 AM 42.8 °F 40.1 °F 39.2 °F 87% 30.29 in 10.0 mi Variable 4.6 mph - N/A   Overcast
1:55 AM 42.8 °F 40.1 °F 38.7 °F 85% 30.29 in 10.0 mi Variable 4.6 mph - N/A   Overcast
1:56 AM 42.8 °F 39.3 °F 39.2 °F 87% 30.29 in 10.0 mi East 5.8 mph - N/A   Overcast
1:57 AM 42.8 °F 39.3 °F 39.2 °F 87% 30.29 in 10.0 mi East 5.8 mph - N/A   Overcast
2:41 AM 42.8 °F 38.6 °F 39.2 °F 87% 30.29 in 10.0 mi Variable 6.9 mph - N/A   Overcast
2:48 AM 42.8 °F 38.0 °F 39.2 °F 87% 30.29 in 10.0 mi East 8.1 mph - N/A   Overcast
2:55 AM 42.1 °F 38.4 °F 38.5 °F 87% 30.29 in 10.0 mi Variable 5.8 mph - N/A   Overcast
2:56 AM 42.8 °F 38.6 °F 39.2 °F 87% 30.29 in 10.0 mi Variable 6.9 mph - N/A   Overcast
3:06 AM 42.8 °F 38.0 °F 39.2 °F 87% 30.29 in 9.0 mi East 8.1 mph - N/A   Overcast
3:11 AM 41.0 °F 37.1 °F 39.2 °F 93% 30.28 in 8.0 mi Variable 5.8 mph - N/A   Overcast
3:21 AM 41.0 °F 35.2 °F 39.2 °F 93% 30.28 in 8.0 mi East 9.2 mph - N/A   Overcast
3:46 AM 41.0 °F 37.1 °F 39.2 °F 93% 30.28 in 10.0 mi East 5.8 mph - N/A   Overcast
3:55 AM 41.2 °F 38.2 °F 38.5 °F 90% 30.28 in 10.0 mi Variable 4.6 mph - N/A   Overcast
4:13 AM 41.0 °F 39.0 °F 39.2 °F 93% 30.29 in 9.0 mi Variable 3.5 mph - N/A   Overcast
4:15 AM 41.0 °F 38.0 °F 39.2 °F 93% 30.29 in 9.0 mi Variable 4.6 mph - N/A   Overcast
4:30 AM 41.0 °F 37.1 °F 39.2 °F 93% 30.29 in 10.0 mi East 5.8 mph - N/A   Overcast
4:46 AM 41.0 °F 36.4 °F 37.4 °F 87% 30.29 in 10.0 mi East 6.9 mph - N/A   Overcast
4:55 AM 41.4 °F 37.6 °F 38.1 °F 88% 30.29 in 10.0 mi East 5.8 mph - N/A   Overcast
5:09 AM 41.0 °F 38.0 °F 37.4 °F 87% 30.29 in 10.0 mi Variable 4.6 mph - N/A   Overcast
5:17 AM 41.0 °F 38.0 °F 37.4 °F 87% 30.29 in 7.0 mi Variable 4.6 mph - N/A   Overcast
5:18 AM 41.0 °F 39.0 °F 37.4 °F 87% 30.29 in 6.0 mi Variable 3.5 mph - N/A   Overcast
5:22 AM 41.0 °F 38.0 °F 39.2 °F 93% 30.29 in 5.0 mi Variable 4.6 mph - N/A   Overcast
5:25 AM 41.0 °F 39.0 °F 39.2 °F 93% 30.29 in 5.0 mi Variable 3.5 mph - N/A   Overcast
5:26 AM 41.0 °F 39.0 °F 39.2 °F 93% 30.29 in 5.0 mi Variable 3.5 mph - N/A   Overcast
5:34 AM 41.0 °F 38.0 °F 39.2 °F 93% 30.29 in 4.0 mi Variable 4.6 mph - N/A   Overcast
5:36 AM 41.0 °F 39.0 °F 39.2 °F 93% 30.29 in 5.0 mi Variable 3.5 mph - N/A   Overcast
5:40 AM 41.0 °F 38.0 °F 39.2 °F 93% 30.29 in 6.0 mi Variable 4.6 mph - N/A   Overcast
5:43 AM 41.0 °F - 39.2 °F 93% 30.29 in 8.0 mi Calm Calm - N/A   Overcast
5:50 AM 41.0 °F - 39.2 °F 93% 30.30 in 10.0 mi Calm Calm - N/A   Overcast
5:55 AM 41.2 °F 39.2 °F 38.3 °F 89% 30.30 in 10.0 mi NNE 3.5 mph - N/A   Overcast
6:00 AM 41.0 °F 38.0 °F 37.4 °F 87% 30.30 in 10.0 mi Variable 4.6 mph - N/A   Overcast
6:12 AM 41.0 °F 38.0 °F 37.4 °F 87% 30.30 in 10.0 mi Variable 4.6 mph - N/A   Overcast
6:17 AM 41.0 °F 38.0 °F 37.4 °F 87% 30.30 in 10.0 mi Variable 4.6 mph - N/A   Overcast
6:29 AM 41.0 °F 36.4 °F 35.6 °F 81% 30.30 in 10.0 mi Variable 6.9 mph - N/A   Overcast
6:55 AM 41.5 °F 37.1 °F 36.0 °F 81% 30.30 in 10.0 mi East 6.9 mph - N/A   Overcast
7:31 AM 41.0 °F - 35.6 °F 81% 30.31 in 10.0 mi Calm Calm - N/A   Overcast
7:55 AM 41.4 °F 38.4 °F 36.0 °F 81% 30.32 in 7.0 mi ENE 4.6 mph - N/A   Overcast
8:12 AM 41.0 °F 39.0 °F 35.6 °F 81% 30.32 in 10.0 mi East 3.5 mph - N/A   Overcast
8:30 AM 42.8 °F 41.1 °F 37.4 °F 81% 30.32 in 10.0 mi ENE 3.5 mph - N/A   Overcast
8:55 AM 42.1 °F - 37.0 °F 82% 30.32 in 10.0 mi Calm Calm - N/A   Overcast
9:55 AM 43.3 °F - 37.4 °F 80% 30.33 in 10.0 mi Calm Calm - N/A   Overcast
10:05 AM 44.6 °F 43.1 °F 37.4 °F 76% 30.33 in 10.0 mi Variable 3.5 mph - N/A   Overcast
10:55 AM 46.2 °F 42.7 °F 38.7 °F 75% 30.32 in 10.0 mi ESE 6.9 mph - N/A   Overcast
11:13 AM 48.2 °F - 39.2 °F 71% 30.30 in 10.0 mi ENE 5.8 mph - N/A   Overcast
11:27 AM 48.2 °F - 39.2 °F 71% 30.30 in 10.0 mi Variable 4.6 mph - N/A   Overcast
11:55 AM 49.6 °F - 39.7 °F 69% 30.29 in 10.0 mi Variable 3.5 mph - N/A   Mostly Cloudy
12:03 PM 50.0 °F - 39.2 °F 66% 30.28 in 10.0 mi Calm Calm - N/A   Overcast
12:23 PM 50.0 °F - 41.0 °F 71% 30.27 in 10.0 mi Variable 4.6 mph - N/A   Overcast
12:55 PM 50.7 °F - 40.6 °F 68% 30.27 in 10.0 mi ENE 5.8 mph - N/A   Overcast
1:55 PM 51.8 °F - 41.4 °F 68% 30.25 in 10.0 mi Calm Calm - N/A   Mostly Cloudy
2:55 PM 52.5 °F - 41.7 °F 67% 30.24 in 10.0 mi Calm Calm - N/A   Mostly Cloudy
3:36 PM 53.6 °F - 42.8 °F 67% 30.23 in 10.0 mi East 6.9 mph - N/A   Mostly Cloudy
3:55 PM 54.0 °F - 42.3 °F 65% 30.23 in 10.0 mi ESE 3.5 mph - N/A   Overcast
4:55 PM 53.1 °F - 42.4 °F 67% 30.24 in 10.0 mi SE 4.6 mph - N/A   Overcast
5:55 PM 50.9 °F - 42.6 °F 73% 30.24 in 10.0 mi South 3.5 mph - N/A   Overcast
6:55 PM 49.5 °F - 42.6 °F 77% 30.25 in 10.0 mi South 2.3 mph - N/A   Scattered Clouds
7:55 PM 48.0 °F - 41.9 °F 79% 30.25 in 10.0 mi WNW 3.5 mph - N/A   Scattered Clouds
8:55 PM 44.6 °F - 41.5 °F 89% 30.27 in 10.0 mi Calm Calm - N/A   Scattered Clouds
9:55 PM 42.6 °F - 40.5 °F 92% 30.28 in 10.0 mi Calm Calm - N/A   Scattered Clouds
10:55 PM 43.2 °F - 40.8 °F 91% 30.28 in 10.0 mi Calm Calm - N/A   Partly Cloudy
11:08 PM 42.8 °F - 41.0 °F 93% 30.28 in 9.0 mi Calm Calm - N/A   Partly Cloudy
11:14 PM 42.8 °F - 41.0 °F 93% 30.28 in 9.0 mi Calm Calm - N/A   Clear
11:55 PM 42.4 °F - 40.5 °F 93% 30.28 in 10.0 mi Calm Calm - N/A   Mostly Cloudy